STARLINK-31848, 59784

Orbit data source: Space-Track

STARLINK-31848, 59784 is a payload satellite owned by SpaceX/Seattle (US) in LEO that was launched on Sat, 18 May 2024 UTC via an FALCON 9 launch vehicle from the Air Force Eastern Test Range (AFETR). Payload-class satellites include a variety of spacecraft equipped with specific instruments for various scientific and technological missions. These include communications satellites like Starlink; space stations such as the ISS; scientific satellites like the Hubble; Earth observation satellites from companies like Planet Labs, Umbra, and HawkEye 360; GPS; miniature CubeSats for education and research; and military/defense satellites.

Loading next visibility...
Identifier
59784, 2024-093C
Orbit
LEO
Country
Flag of USUS
Related business
Manufacturer
SpaceX/Seattle
Mission
Operational Commercial Communications
Bus & Motor
STARLINK V2M, Unknown motor
Mass
730 kg wet, ~700 kg dry
Launch date (UTC)
2024-05-18 (2 years ago)
Launch vehicle
FALCON 9
Launch site
Air Force Eastern Test Range (AFETR)
Object type
Payload
Rocket body
Debris
Shape & HBR
Box + 2 Pan, 17.7 m
Radar Cross Section
33.884 m², Large (>1 m²)

Expand to show TLE details & history
Last TLE update: 2 days ago

TLE from 2 days ago
0 STARLINK-31848
1 59784U 24093C   26072.33797969  .00001806  00000-0  75130-4 0  9996
2 59784  43.0033 184.8094 0001485 271.2886  88.7795 15.27580656103298
Epoch: 2026-03-13T08:06Z
TLE epoch observation values (Epoch: 2026-03-13T08:06:41.445Z)
Latitude
-0.00005°
Longitude
-107.83829°
Altitude
482.801 km
Speed
7.626 km/s
True Right ascension
12h 19m 14s
True Declination
0° 00' 00"
Sunlit
Object was in full shadow at epoch
Visualization orbit readout
Latitude
Unknown
Longitude
Unknown
Altitude
Unknown
Speed
Unknown
Apparent Right ascension
Unknown
Apparent Declination
Unknown
Sunlit
N/A
Visualization observer readout
Local Sidereal Time
02:19:09
Azimuth
Unknown
Elevation
Unknown
Doppler factor
Unknown
Orbital elements
Apogee altitude
486.011 km
Perigee altitude
483.973 km
Semi-major axis
6,863.129 km
Eccentricity
0.00015
Inclination
43.0033°
RAAN
184.8094°
Arg. of periapsis
271.2886°
True anomaly
88.79651°
Mean anomaly
88.7795°
Eccentric anomaly
88.78801°
Mean motion
3.81733 °/min
Orbital period
94.31 mins
BSTAR
0.00007513
Loading maneuver chart data...
Computing Atmospheric mass density...
Loading historical data...
Loading historical data...
Loading historical data...
Loading historical data...
Loading historical data...
Loading historical data...
Loading historical data...

Documentation

Showing up to 5 results
|